Hourly Data Report for June 02, 2021

VINELAND STATION RCS
ONTARIO
Current Station Operator: ECCC - MSC

43°11'00.000" N
79°24'00.000" W
79.20 m
6139148
71171
XVN

Download Data

Hourly Data (June 2021)
Hourly Data Report for June 2, 2021
TIME
LST
Temp Definition
°C
Dew Point Definition
°C
Rel Hum Definition
%
Precip. Amount Definition
mm

Wind Dir Definition
10's deg

Wind Spd Definition
km/h
Visibility Definition
km
Stn Press Definition
kPa
Hmdx Definition


Wind Chill Definition


Weather Definition


00:00 13.5 7.3 66 0.0 8 3   101.18     LegendNANA
01:00 12.1 7.2 72 0.0 18 2   101.14     LegendNANA
02:00 12.9 7.5 70 0.0 19 7   101.12     LegendNANA
03:00 11.2 7.4 77 0.0 19 2   101.14     LegendNANA
04:00 11.4 7.1 75 0.0 19 4   101.12     LegendNANA
05:00 11.4 7.1 75 0.0 19 6   101.13     LegendNANA
06:00 13.8 9.4 75 0.0   0   101.13     LegendNANA
07:00 16.4 9.4 63 0.0 20 5   101.11     LegendNANA
08:00 17.4 9.9 61 0.0 2 4   101.11     LegendNANA
09:00 18.7 11.5 63 0.0 4 5   101.09     LegendNANA
10:00 19.1 11.7 62 0.0 4 6   101.05     LegendNANA
11:00 17.3 9.9 62 0.0 5 8   101.05     LegendNANA
12:00 17.7 8.4 55 0.0 6 10   101.00     LegendNANA
13:00 17.4 10.2 63 0.0 6 11   100.93     LegendNANA
14:00 17.2 10.4 64 0.0 8 10   100.86     LegendNANA
15:00 17.0 10.2 64 0.0 7 9   100.82     LegendNANA
16:00 17.4 10.0 62 0.0 6 10   100.78     LegendNANA
17:00 18.0 8.7 55 0.0 10 8   100.74     LegendNANA
18:00 18.8 9.6 55 0.0 5 3   100.68     LegendNANA
19:00 18.6 10.3 58 0.0 12 3   100.66     LegendNANA
20:00 19.4 12.3 64 0.0 20 5   100.65     LegendNANA
21:00 18.9 11.8 63 0.0 20 13   100.69     LegendNANA
22:00 16.4 13.4 82 0.2 22 7   100.68     LegendNANA
23:00 15.6 14.1 91 1.4 18 4   100.64     LegendNANA

Notes on Data Quality.

Legend

  • E = Estimated
  • M = Missing
  • NA = Not Available*
  • [empty] = Indicates an unobserved value
Date modified: